Wind_Speed
15 15 15 14 13 13 11 9 7 7 6 5 4 5 5 2 7 6 3 2 4 6 6 3 7 9 5 4 4 2 3 1 2 1 2 5 5 3 3 2 3 1 3 9 24
15 15 16 15 14 13 12 11 7 5 4 3 5 5 1 9 11 13 10 8 7 5 4 6 5 7 3 3 3 4 3 4 2 2 2 4 3 6 5 7 3 5 6 16 25
15 15 15 15 15 13 13 12 9 7 6 5 4 1 6 5 2 3 9 8 9 7 9 6 6 3 4 4 4 1 4 1 2 0 2 3 4 2 3 4 5 8 9 12 19
14 15 16 17 16 15 14 11 8 6 5 3 1 7 7 2 2 2 7 7 7 5 7 8 5 3 3 2 3 2 1 1 3 3 3 2 3 3 5 8 6 7 6 5 8
16 16 17 18 15 15 12 10 7 5 4 4 7 8 4 5 3 3 6 5 7 7 8 3 5 2 3 2 2 2 2 4 6 8 6 4 7 6 7 10 8 6 6 2 1
17 17 17 16 14 13 10 8 6 6 7 9 4 4 2 4 2 3 4 5 6 8 6 5 2 2 4 2 1 1 3 7 5 5 4 2 4 5 6 4 5 6 4 1 4
16 17 17 15 14 12 8 6 4 7 8 6 6 8 7 5 3 2 4 5 7 5 3 4 2 3 2 2 2 1 5 5 2 2 3 3 6 7 9 4 5 7 6 3 2
18 18 17 15 13 13 5 3 3 6 5 4 4 3 3 1 2 3 2 4 6 6 8 4 4 5 3 1 5 3 3 4 2 5 1 5 8 6 7 2 9 7 7 3 4
18 18 18 16 13 14 5 1 5 4 2 3 2 4 3 2 1 2 2 2 2 4 4 4 4 3 4 4 4 5 1 2 7 1 2 4 12 7 6 6 9 7 7 4 4
17 17 17 17 12 15 2 4 2 2 1 1 2 3 2 2 0 1 2 2 2 1 3 4 4 3 3 3 2 2 2 3 5 5 3 6 18 15 9 7 10 7 7 6 5
16 16 16 16 10 15 3 2 3 3 7 2 1 2 2 2 1 0 1 1 2 5 3 3 4 1 4 6 4 3 3 6 6 6 5 6 12 17 14 7 7 6 7 5 5
15 15 16 15 6 12 4 5 1 1 4 2 2 2 1 2 2 2 1 2 2 1 1 4 2 4 2 3 4 3 3 6 6 3 4 7 19 12 6 5 5 5 6 4 1
14 14 16 12 2 6 12 5 2 2 3 2 1 2 2 2 2 3 3 2 2 1 1 4 3 2 3 3 2 3 4 3 6 5 3 8 8 6 4 4 4 6 4 4 2
13 14 13 7 3 2 3 2 1 1 4 2 2 2 2 2 0 1 3 1 1 1 1 4 3 1 3 3 4 3 3 3 5 6 3 5 5 6 5 8 3 5 2 3 2
12 12 9 5 4 3 1 1 4 1 3 3 2 3 1 2 4 2 0 3 2 2 5 3 0 0 1 4 4 6 1 4 3 4 0 2 2 7 3 4 4 2 5 6 4
12 9 6 0 4 4 3 6 2 5 4 2 3 2 1 2 2 2 1 4 1 0 0 5 2 2 4 1 0 3 3 4 3 3 2 4 4 5 2 3 2 1 2 5 7
12 8 4 1 6 5 7 3 4 4 2 4 3 3 2 3 2 4 3 1 2 3 4 5 1 1 2 2 2 6 6 4 6 4 4 2 3 9 4 4 4 3 5 7 6
11 8 4 4 5 7 6 4 4 3 4 1 3 1 3 1 1 0 1 2 2 3 2 2 4 1 0 1 2 3 4 4 4 3 4 3 6 5 7 4 5 2 5 6 8
11 7 4 7 4 8 4 3 7 6 5 6 3 3 1 1 2 2 2 3 3 4 5 3 5 3 4 2 4 2 1 1 1 1 2 4 6 8 8 4 2 5 6 7 8
8 3 4 9 5 4 4 5 5 4 6 3 6 4 5 3 0 2 1 2 3 2 2 4 4 2 4 2 4 2 7 3 3 3 5 5 5 9 3 7 6 8 11 16 11
7 1 7 7 6 3 4 6 5 3 3 5 6 4 3 4 4 3 3 2 2 2 5 3 4 4 2 3 5 2 2 4 4 4 4 5 5 6 6 2 5 8 12 11 11
7 1 9 9 2 1 3 6 6 5 2 2 3 3 6 6 4 3 5 4 5 6 4 1 4 3 8 2 2 1 5 5 4 5 3 1 8 4 4 4 4 16 11 9 9
4 3 3 5 3 4 3 3 5 5 6 5 5 4 3 6 1 5 4 2 6 7 6 6 0 3 6 5 4 3 4 4 3 3 10 4 7 5 3 18 17 15 14 14 10
4 4 2 2 2 5 5 5 5 2 5 4 5 4 4 4 3 4 4 2 5 5 8 8 4 7 6 6 4 1 3 6 6 4 11 18 27 23 21 18 19 15 14 10 10
3 5 4 5 5 4 3 5 7 7 2 4 1 6 7 4 3 5 5 2 3 5 5 4 4 6 10 10 6 7 10 9 13 20 14 25 18 24 22 22 18 9 8 11 11
5 4 1 3 3 7 7 7 10 5 8 5 5 9 7 7 8 8 6 4 5 2 4 1 4 3 4 11 15 17 20 18 21 22 20 26 29 21 18 10 6 8 8 8 8
6 3 3 4 5 5 5 6 10 9 6 7 11 6 9 15 6 3 5 4 5 7 5 3 2 2 4 3 7 13 18 18 11 6 10 14 18 5 5 6 6 6 7 8 8
Wind_Direction
346 345 346 345 344 346 343 351 349 347 335 327 309 300 317 38 106 105 61 351 348 322 338 6 18 19 50 42 19 106 63 235 286 123 27 358 5 331 322 341 318 251 224 258 319
344 344 344 343 341 339 341 341 334 335 315 318 295 310 148 121 102 61 47 42 22 359 56 39 14 11 45 22 15 78 116 218 28 67 12 324 21 312 0 345 317 321 295 315 336
342 340 341 342 342 341 342 345 339 333 328 303 294 189 163 150 94 49 20 28 21 59 77 73 53 52 54 33 8 65 174 54 168 75 33 301 318 318 322 324 253 290 304 335 329
340 342 346 348 346 343 341 347 346 344 343 11 63 136 142 180 105 328 4 10 43 59 66 47 32 54 76 60 4 53 71 37 291 342 345 273 283 278 190 238 254 281 311 295 324
345 350 351 349 351 345 345 358 2 4 13 32 122 128 128 46 39 19 15 26 47 60 57 76 55 81 92 44 37 83 331 327 299 289 250 195 237 229 250 254 277 319 309 210 66
344 348 351 351 356 351 357 358 15 37 87 97 98 133 132 81 358 354 49 38 56 66 61 51 106 106 94 85 105 342 297 284 289 290 281 272 275 147 262 264 308 323 211 335 19
341 348 354 354 356 356 359 13 47 94 99 77 74 101 63 167 13 34 50 57 57 89 91 64 84 90 124 81 355 4 346 331 220 321 305 145 286 225 243 339 296 305 214 159 336
347 350 354 353 354 353 349 26 100 116 98 49 63 83 96 137 72 69 147 78 60 76 95 82 93 101 80 102 21 42 45 18 280 333 150 91 272 260 269 291 293 288 244 261 298
348 351 353 354 352 352 332 124 120 133 81 23 37 94 124 170 144 39 89 139 47 62 55 95 71 86 44 81 30 21 210 249 310 255 250 63 285 247 281 287 271 278 235 224 257
345 351 353 350 351 353 12 178 133 147 89 42 74 54 284 192 159 110 61 128 96 64 29 46 52 74 45 75 204 247 309 253 235 282 336 278 265 281 272 258 255 271 214 202 221
344 348 350 349 350 357 121 144 25 358 48 112 255 91 114 113 134 271 336 99 59 50 58 13 52 223 229 198 170 188 214 248 258 264 281 253 275 286 293 292 278 243 197 199 233
339 345 346 347 348 4 72 77 30 320 98 28 109 79 123 167 142 240 197 104 66 52 87 22 249 240 237 160 186 229 268 276 287 241 308 307 293 281 283 275 259 212 185 198 36
328 341 344 350 23 33 72 85 27 42 103 241 217 176 181 172 210 224 155 131 145 119 163 171 262 8 185 216 231 263 223 251 254 324 277 338 299 347 309 357 3 69 98 132 120
317 336 347 358 140 87 56 27 161 97 80 223 238 220 156 137 24 166 189 144 60 209 335 222 278 142 149 244 164 284 188 247 281 5 293 68 281 310 329 335 71 61 97 148 248
304 327 346 23 130 98 104 96 142 185 24 167 189 149 86 177 146 209 99 51 203 207 81 259 238 107 242 230 168 236 342 265 250 202 45 339 64 271 357 18 353 232 177 221 290
287 311 333 92 105 112 117 135 115 46 264 195 126 199 183 173 197 113 97 43 106 233 154 242 309 222 218 76 21 337 341 53 62 97 22 234 144 273 264 227 253 187 266 302 301
273 293 298 173 150 132 142 101 37 130 41 180 215 172 247 218 206 175 174 211 191 43 351 335 207 249 159 127 44 46 35 340 351 5 226 246 285 255 240 231 176 105 282 267 289
252 276 245 184 137 143 138 57 107 189 200 115 117 114 218 143 285 241 127 292 135 104 89 86 334 103 231 183 151 55 124 146 256 279 282 316 244 252 210 201 148 105 288 288 277
227 261 234 190 176 165 92 78 207 194 159 151 106 136 238 208 147 344 213 213 211 162 159 110 278 331 53 35 112 162 110 188 113 337 19 246 288 288 221 229 235 258 255 262 273
202 204 231 179 177 148 85 223 192 186 132 136 168 160 191 196 186 42 226 206 167 82 118 178 340 353 301 20 40 151 154 52 10 341 289 271 264 236 198 218 284 329 336 335 313
176 78 167 170 173 54 179 211 183 163 129 148 182 148 176 175 166 192 231 277 150 81 75 118 106 288 323 189 180 89 160 59 120 153 206 301 246 217 215 176 319 308 322 301 293
145 194 160 164 64 197 187 190 146 154 132 126 123 147 173 163 172 223 217 215 163 146 142 105 137 241 234 257 8 141 199 140 134 257 234 241 272 270 156 110 299 312 309 294 283
159 163 174 153 186 222 260 200 171 140 173 160 165 170 170 178 126 196 196 256 168 151 162 182 29 343 336 3 3 181 193 148 119 96 218 226 260 209 258 320 323 316 311 308 296
124 171 172 130 265 163 175 212 180 174 143 142 140 118 121 199 211 188 216 216 196 187 166 148 170 181 207 202 145 196 241 197 163 207 260 228 267 276 297 299 309 308 301 294 292
147 218 188 182 235 202 141 159 153 163 165 153 99 193 162 170 197 216 195 222 192 218 168 142 229 200 247 259 220 227 233 222 215 246 246 270 260 279 292 297 300 292 295 306 305
147 165 203 161 120 141 192 214 182 162 144 207 205 184 172 173 188 192 150 180 202 56 129 329 256 191 248 244 246 260 255 247 241 249 255 265 277 274 281 286 285 296 319 317 323
153 124 135 150 136 133 212 189 203 141 227 165 182 133 190 226 181 141 169 170 157 154 175 160 154 23 263 345 317 277 252 231 229 220 224 244 256 287 262 285 287 286 287 287 293
Height
803 800 797 793 790 787 784 781 779 778 776 775 774 774 773 772 772 772 773 774 772 771 769 768 767 766 766 769 770 773 791 794 783 783 786 785 785 780 779 780 780 776 777 773 767
804 800 797 793 789 786 783 780 778 777 776 775 773 772 772 772 773 773 776 774 772 771 770 769 770 769 774 774 776 781 795 789 784 784 787 786 787 784 783 784 778 777 773 769 768
803 800 796 792 788 784 781 778 776 775 775 773 772 772 772 772 773 777 777 775 773 772 771 771 771 773 777 777 782 784 791 787 786 785 787 787 787 785 784 784 780 780 774 771 768
802 798 793 789 786 783 780 777 775 774 773 772 772 772 773 773 779 777 777 776 774 773 772 773 775 778 782 784 783 787 786 787 786 786 788 788 785 785 786 782 776 776 778 775 773
800 796 791 788 785 782 780 777 775 774 773 772 772 773 774 777 780 778 777 776 775 774 775 776 779 781 785 785 785 787 788 787 787 786 785 785 785 785 781 777 776 778 775 774 773
800 796 791 787 784 781 779 777 776 775 774 774 774 774 775 781 779 779 778 778 776 776 777 778 780 781 786 787 788 790 790 791 786 783 783 782 782 783 774 773 776 777 775 774 772
799 795 790 786 784 780 779 777 776 776 776 776 775 774 777 784 780 780 780 779 778 777 779 780 780 782 786 788 789 789 791 788 784 782 782 782 783 780 771 774 776 776 773 772 772
798 794 790 786 782 780 779 777 777 777 777 777 776 775 782 781 780 781 780 780 780 779 779 781 781 783 786 789 793 792 795 796 783 784 780 782 792 773 771 772 774 773 772 772 770
796 793 790 786 782 779 778 777 777 777 777 777 777 776 783 781 781 781 781 781 780 780 781 781 782 788 791 799 809 805 813 798 795 783 785 783 787 773 770 772 772 771 770 770 770
794 790 788 786 782 779 777 778 777 776 777 777 778 781 783 782 781 781 782 782 781 781 783 784 791 798 802 806 807 797 806 802 803 788 785 791 784 769 769 770 769 769 768 768 770
793 789 786 784 782 779 777 778 782 781 778 781 782 781 781 781 781 782 782 782 782 784 789 789 797 795 792 796 791 791 797 804 800 789 788 788 782 768 762 765 767 766 767 768 768
791 788 784 783 781 780 777 781 785 787 784 779 779 780 780 780 782 782 783 784 784 789 789 797 797 787 786 789 791 791 796 803 795 787 785 785 773 764 761 759 757 761 767 767 766
790 786 783 781 780 782 781 784 785 784 786 780 779 779 781 782 781 781 783 784 785 788 788 794 783 782 785 786 789 792 795 798 796 792 790 787 780 772 760 758 756 762 764 766 766
789 785 781 780 782 782 784 784 784 784 805 783 780 779 779 779 782 781 781 784 785 786 788 792 783 780 784 786 789 794 787 788 793 800 810 792 815 780 767 767 760 770 769 766 764
786 784 780 778 780 782 784 783 783 785 803 782 780 778 778 781 781 782 782 783 785 785 792 786 783 783 786 786 784 790 785 790 791 802 801 802 822 787 771 764 768 765 766 765 764
784 782 780 779 779 781 781 782 785 798 806 781 780 780 781 781 780 782 783 783 785 787 790 791 785 784 786 783 785 788 791 803 810 814 851 812 809 790 774 766 766 765 767 767 767
783 781 779 777 777 779 780 783 797 805 777 779 778 780 780 781 782 783 786 788 791 803 798 794 786 784 783 785 789 795 810 841 830 848 836 803 803 779 765 765 763 763 765 765 765
781 780 778 777 776 776 779 791 801 777 779 774 775 778 782 781 784 784 788 793 790 792 824 819 800 786 785 786 790 800 808 845 829 855 822 805 794 773 766 760 761 761 765 765 761
776 777 777 775 776 775 782 807 780 775 770 775 779 779 781 783 792 790 791 795 788 794 805 833 802 791 788 787 791 804 819 812 825 831 854 812 795 771 767 765 764 767 767 763 759
773 774 774 774 774 776 788 774 767 765 770 771 771 775 782 783 787 799 796 788 787 790 795 808 825 798 794 790 797 796 808 827 864 863 838 804 804 766 760 767 767 766 761 754 753
772 776 771 773 776 780 786 775 766 764 765 771 776 778 781 783 799 797 800 788 787 795 799 810 820 808 800 798 802 810 810 828 840 848 848 835 787 768 761 760 765 767 759 757 752
767 778 770 772 787 780 782 764 756 765 767 770 772 773 781 787 800 803 793 792 787 792 797 806 833 841 811 800 804 801 824 831 844 853 863 836 777 752 756 756 763 757 755 754 749
762 768 769 770 781 776 770 759 756 762 766 771 774 773 778 785 802 797 790 784 787 790 802 807 835 847 810 815 809 814 814 829 849 850 818 831 773 758 754 750 752 754 751 747 744
759 762 767 768 769 766 770 765 760 757 762 764 770 774 779 783 785 798 791 785 787 788 786 793 820 822 813 818 835 824 831 811 820 822 789 782 756 754 753 755 753 753 749 747 742
748 748 744 755 763 763 767 764 757 761 760 763 772 771 777 804 790 789 791 788 787 786 789 801 817 818 806 800 813 810 815 816 810 787 798 758 774 754 756 754 754 753 750 745 740
737 742 746 748 749 759 758 761 752 751 761 766 766 763 775 784 773 786 789 792 791 798 807 813 803 804 802 794 792 789 780 783 784 783 781 772 764 758 758 758 756 754 750 747 741
723 729 731 736 751 757 749 744 744 745 750 747 753 761 773 764 768 772 775 779 783 795 808 807 809 811 807 798 795 788 762 764 764 769 771 775 756 757 758 756 752 749 748 745 739